Tacoma, WA
on Monday, November 5, 2012

Monday
Previous Day Next Day
Daily Summary
 ActualAverage (KSEA)Record (KSEA)
Temperature
Mean Temperature °F 48°F  
Max Temperature 60°F 53°F 65°F (1949)
Min Temperature 42°F 42°F 31°F (1961)
Degree Days
Heating Degree Days 14 17  
Month to date heating degree days 84  
Since 1 July heating degree days 681  
Cooling Degree Days 0 0  
Month to date cooling degree days 0  
Year to date cooling degree days 189  
Growing Degree Days1 (Base °F )  
Moisture
Dew Point 51°F   
Average Humidity 92    
Maximum Humidity 100    
Minimum Humidity 48    
Precipitation
Precipitation 0.05 in 0.20 in 1.01 in (1988)
Month to date precipitation 0.98  
Year to date precipitation 26.55  
Snow
Snow 0.00 in in T in (1973)
Month to date snowfall  
Since 1 July snowfall  
Snow Depth in   
Wind
Wind Speed 7 mph   
Max Wind Speed 12 mph   
Max Gust Speed 17 mph   
Visibility 8 miles   
Events Fog , Rain   

Key: T is trace of precipitation, MM is missing value
Source: NWS Daily Summary
Time(PST)TemperatureDew PointHumidity Pressure Visibility Wind DirectionWind SpeedGust SpeedPrecipitationEvents Conditions
12:03 AM 60.8°F 59.0°F 94% 30.31 in 8.0 miles WSW 11.5 mph - N/A Rain Light Rain
12:05 AM 60.8°F 59.0°F 94% 30.31 in 7.0 miles WSW 9.2 mph - N/A Rain Light Rain
12:09 AM 59.0°F 59.0°F 100% 30.31 in 5.0 miles SW 9.2 mph - N/A   Overcast
12:14 AM 59.0°F 59.0°F 100% 30.31 in 5.0 miles SW 6.9 mph - N/A   Overcast
12:19 AM 59.0°F 59.0°F 100% 30.31 in 5.0 miles SW 9.2 mph - N/A Rain Light Rain
12:31 AM 59.0°F 59.0°F 100% 30.31 in 4.0 miles SW 8.1 mph - N/A   Overcast
12:34 AM 59.0°F 59.0°F 100% 30.31 in 4.0 miles SW 9.2 mph - N/A   Light Drizzle
12:44 AM 59.0°F 59.0°F 100% 30.32 in 4.0 miles West 10.4 mph 17.3 mph N/A Rain Light Rain
12:58 AM 57.9°F 57.6°F 99% 30.32 in 5.0 miles SW 9.2 mph - 0.03 in   Light Drizzle
1:03 AM 57.2°F 57.2°F 100% 30.32 in 5.0 miles SW 10.4 mph - N/A Rain Light Rain
1:08 AM 57.2°F 57.2°F 100% 30.32 in 6.0 miles SW 9.2 mph - N/A   Light Drizzle
1:16 AM 57.2°F 57.2°F 100% 30.32 in 9.0 miles SW 9.2 mph - N/A   Overcast
1:21 AM 57.2°F 57.2°F 100% 30.32 in 10.0 miles SW 8.1 mph - N/A   Overcast
1:58 AM 57.2°F 56.8°F 99% 30.34 in 10.0 miles SSW 8.1 mph - 0.01 in   Overcast
2:34 AM 57.2°F 57.2°F 100% 30.35 in 10.0 miles North 4.6 mph - N/A   Light Drizzle
2:37 AM 57.2°F 57.2°F 100% 30.35 in 10.0 miles North 6.9 mph - N/A   Light Drizzle
2:58 AM 56.5°F 56.1°F 99% 30.36 in 10.0 miles North 8.1 mph - 0.00 in   Light Drizzle
3:01 AM 55.4°F 55.4°F 100% 30.35 in 10.0 miles North 9.2 mph - N/A   Overcast
3:06 AM 55.4°F 55.4°F 100% 30.35 in 10.0 miles NNE 6.9 mph - N/A   Overcast
3:16 AM 53.6°F 53.6°F 100% 30.35 in 10.0 miles North 9.2 mph - N/A   Overcast
3:22 AM 53.6°F 53.6°F 100% 30.36 in 10.0 miles North 8.1 mph - N/A Rain Light Rain
3:27 AM 53.6°F 53.6°F 100% 30.36 in 9.0 miles North 8.1 mph - N/A Rain Light Rain
3:31 AM 53.6°F 53.6°F 100% 30.36 in 8.0 miles North 8.1 mph - N/A Rain Light Rain
3:41 AM 53.6°F 53.6°F 100% 30.36 in 9.0 miles North 5.8 mph - N/A Rain Light Rain
3:58 AM 53.6°F 53.2°F 99% 30.37 in 10.0 miles North 6.9 mph - 0.01 in Rain Light Rain
3:59 AM 53.6°F 53.6°F 100% 30.36 in 10.0 miles North 6.9 mph - N/A   Overcast
4:34 AM 53.6°F 53.6°F 100% 30.37 in 10.0 miles North 4.6 mph - N/A   Overcast
4:54 AM 53.6°F 51.8°F 94% 30.37 in 10.0 miles NNE 3.5 mph - N/A   Overcast
4:58 AM 52.9°F 52.7°F 99% 30.38 in 10.0 miles NNE 4.6 mph - 0.00 in   Overcast
5:03 AM 53.6°F 51.8°F 94% 30.38 in 10.0 miles North 4.6 mph - N/A   Overcast
5:48 AM 53.6°F 50.0°F 88% 30.37 in 10.0 miles NE 3.5 mph - N/A   Overcast
5:58 AM 52.2°F 49.5°F 91% 30.40 in 10.0 miles NNE 4.6 mph - N/A   Mostly Cloudy
6:58 AM 51.1°F 48.7°F 92% 30.38 in 6.0 miles Calm Calm - N/A   Partly Cloudy
7:18 AM 50.0°F 48.2°F 94% 30.39 in 1.5 miles East 1.2 mph - N/A   Clear
7:28 AM 50.0°F 48.2°F 94% 30.39 in 4.0 miles Calm Calm - N/A   Partly Cloudy
7:48 AM 48.2°F 48.2°F 100% 30.37 in 1.8 miles SSE 2.3 mph - N/A   Partly Cloudy
7:53 AM 48.2°F 48.2°F 100% 30.37 in 0.5 miles South 2.3 mph - N/A Fog Fog
7:54 AM 48.2°F 48.2°F 100% 30.37 in 2.0 miles SSE 2.3 mph - N/A   Partly Cloudy
7:58 AM 48.2°F 48.2°F 100% 30.40 in 0.5 miles Calm Calm - N/A Fog Fog
8:03 AM 48.2°F 48.2°F 100% 30.38 in 1.0 miles Calm Calm - N/A   Clear
8:08 AM 50.0°F 48.2°F 94% 30.38 in 3.0 miles Calm Calm - N/A   Clear
8:13 AM 50.0°F 48.2°F 94% 30.38 in 2.0 miles North 1.2 mph - N/A   Clear
8:18 AM 50.0°F 50.0°F 100% 30.38 in 2.5 miles Calm Calm - N/A   Clear
8:23 AM 50.0°F 50.0°F 100% 30.38 in 7.0 miles Calm Calm - N/A   Clear
8:58 AM 53.4°F 48.6°F 84% 30.40 in 10.0 miles Calm Calm - N/A   Clear
9:58 AM 55.9°F 46.8°F 71% 30.39 in 10.0 miles Variable 3.5 mph - N/A   Clear
10:58 AM 57.7°F 45.0°F 62% 30.40 in 10.0 miles Variable 4.6 mph - N/A   Clear
11:58 AM 59.7°F 43.3°F 55% 30.38 in 10.0 miles Variable 5.8 mph - N/A   Clear
12:58 PM 60.8°F 41.2°F 48% 30.36 in 10.0 miles NE 8.1 mph - N/A   Clear
1:58 PM 58.8°F 43.2°F 56% 30.36 in 10.0 miles NNE 9.2 mph - N/A   Clear
2:58 PM 57.0°F 43.5°F 61% 30.33 in 10.0 miles NNE 5.8 mph - N/A   Clear
3:58 PM 56.1°F 42.4°F 60% 30.32 in 10.0 miles NNE 6.9 mph - N/A   Clear
4:58 PM 53.1°F 42.1°F 66% 30.31 in 10.0 miles NNE 5.8 mph - N/A   Clear
5:58 PM 50.9°F 41.7°F 71% 30.31 in 10.0 miles North 3.5 mph - N/A   Clear
6:58 PM 49.6°F 43.7°F 80% 30.28 in 10.0 miles Calm Calm - N/A   Clear
7:58 PM 45.9°F 43.0°F 90% 30.27 in 10.0 miles Calm Calm - N/A   Overcast
8:58 PM 45.7°F 44.2°F 95% 30.24 in 10.0 miles East 1.2 mph - N/A   Partly Cloudy
9:58 PM 44.8°F 44.2°F 98% 30.22 in 10.0 miles Calm Calm - N/A   Clear
10:58 PM 42.4°F 41.9°F 98% 30.20 in 10.0 miles South 2.3 mph - N/A   Clear
11:58 PM 42.1°F 41.9°F 99% 30.19 in 10.0 miles South 1.2 mph - N/A   Partly Cloudy
Moon Phase
Nov. 05 Nov. 06 Nov. 13 Nov. 20 Nov. 28
Sunrise:06:59 AM (PST) Moon Rise:10:30 PM (PST)11/5
Sunset:04:46 PM (PST) Moon Set:12:22 PM (PST)11/5

Copyright © 2014 The Weather Underground, Inc.